| time (UTC) | temp F | wind direction | speed knots | gust knots | rain 1hr in | rain 24hr in | rain mn in | humidity % | barometer mb |
| 20260504050406 | 97 | 304 | 1.7 | 9.6 | 0.00 | 0.00 | 0.00 | 41 | 1010.2 |
| 20260504045906 | 95 | 218 | 0.0 | 1.7 | 0.00 | 0.00 | 0.00 | 51 | 1010.5 |
| 20260504045406 | 96 | 82 | 2.6 | 4.3 | 0.00 | 0.00 | 0.00 | 50 | 1010.5 |
| 20260504044906 | 95 | 99 | 0.9 | 2.6 | 0.00 | 0.00 | 0.00 | 52 | 1010.5 |
| 20260504044408 | 95 | 247 | 2.6 | 4.3 | 0.00 | 0.00 | 0.00 | 54 | 1010.5 |
| 20260504043906 | 95 | 204 | 2.6 | 7.8 | 0.00 | 0.00 | 0.00 | 53 | 1010.5 |
| 20260504043406 | 95 | 89 | 0.9 | 4.3 | 0.00 | 0.00 | 0.00 | 51 | 1010.5 |
| 20260504042907 | 93 | 98 | 0.9 | 5.2 | 0.00 | 0.00 | 0.00 | 54 | 1011.2 |
| 20260504042407 | 94 | 193 | 6.1 | 8.7 | 0.00 | 0.00 | 0.00 | 54 | 1010.8 |
| 20260504041906 | 92 | 107 | 2.6 | 7.8 | 0.00 | 0.00 | 0.00 | 55 | 1011.2 |
| 20260504041406 | 91 | 179 | 6.1 | 8.7 | 0.00 | 0.00 | 0.00 | 58 | 1011.2 |
| 20260504040907 | 91 | 142 | 3.5 | 8.7 | 0.00 | 0.00 | 0.00 | 59 | 1011.2 |
| 20260504040407 | 90 | 182 | 2.6 | 7.0 | 0.00 | 0.00 | 0.00 | 61 | 1011.5 |
| 20260504035907 | 90 | 145 | 2.6 | 7.8 | 0.00 | 0.00 | 0.00 | 61 | 1011.5 |
| 20260504035406 | 89 | 175 | 4.3 | 8.7 | 0.00 | 0.00 | 0.00 | 62 | 1011.5 |
| 20260504034907 | 90 | 330 | 4.3 | 7.8 | 0.00 | 0.00 | 0.00 | 62 | 1011.9 |
| 20260504034408 | 89 | 114 | 6.1 | 9.6 | 0.00 | 0.00 | 0.00 | 61 | 1011.9 |
| 20260504033907 | 89 | 134 | 7.8 | 9.6 | 0.00 | 0.00 | 0.00 | 61 | 1011.5 |
| 20260504033406 | 90 | 212 | 6.1 | 7.0 | 0.00 | 0.00 | 0.00 | 61 | 1011.5 |
| 20260504032907 | 90 | 145 | 5.2 | 7.8 | 0.00 | 0.00 | 0.00 | 61 | 1011.5 |
| 20260504032406 | 90 | 161 | 4.3 | 12.2 | 0.00 | 0.00 | 0.00 | 61 | 1011.5 |
| 20260504031906 | 90 | 128 | 7.0 | 11.3 | 0.00 | 0.00 | 0.00 | 60 | 1011.9 |
| 20260504031406 | 92 | 206 | 6.1 | 11.3 | 0.00 | 0.00 | 0.00 | 58 | 1011.9 |
| 20260504030906 | 92 | 145 | 5.2 | 7.0 | 0.00 | 0.00 | 0.00 | 55 | 1011.9 |
| 20260504030406 | 91 | 78 | 4.3 | 6.1 | 0.00 | 0.00 | 0.00 | 56 | 1011.9 |
| 20260504025907 | 92 | 223 | 3.5 | 6.1 | 0.00 | 0.00 | 0.00 | 58 | 1011.9 |
| 20260504025406 | 92 | 123 | 6.1 | 7.8 | 0.00 | 0.00 | 0.00 | 56 | 1011.9 |
| 20260504024906 | 93 | 117 | 3.5 | 5.2 | 0.00 | 0.00 | 0.00 | 56 | 1012.2 |
| 20260504024412 | 94 | 113 | 0.9 | 2.6 | 0.00 | 0.00 | 0.00 | 54 | 1012.2 |
| 20260504023906 | 93 | 243 | 1.7 | 1.7 | 0.00 | 0.00 | 0.00 | 55 | 1011.9 |
| 20260504023407 | 92 | 321 | 0.9 | 2.6 | 0.00 | 0.00 | 0.00 | 56 | 1012.2 |
| 20260504022906 | 91 | 289 | 1.7 | 2.6 | 0.00 | 0.00 | 0.00 | 56 | 1012.5 |
| 20260504022406 | 92 | 87 | 0.9 | 2.6 | 0.00 | 0.00 | 0.00 | 55 | 1012.2 |
| 20260504021906 | 93 | 52 | 2.6 | 5.2 | 0.00 | 0.00 | 0.00 | 54 | 1012.2 |
| 20260504021406 | 93 | 125 | 2.6 | 6.1 | 0.00 | 0.00 | 0.00 | 55 | 1012.2 |
| 20260504020906 | 91 | 355 | 0.9 | 0.9 | 0.00 | 0.00 | 0.00 | 57 | 1012.5 |
| 20260504020407 | 90 | 61 | 0.9 | 4.3 | 0.00 | 0.00 | 0.00 | 58 | 1012.5 |
| 20260504015907 | 89 | 54 | 3.5 | 5.2 | 0.00 | 0.00 | 0.00 | 58 | 1012.5 |
| 20260504015406 | 90 | 51 | 3.5 | 5.2 | 0.00 | 0.00 | 0.00 | 58 | 1012.5 |
| 20260504014906 | 90 | 81 | 4.3 | 6.1 | 0.00 | 0.00 | 0.00 | 58 | 1012.5 |
| 20260504014406 | 91 | 60 | 4.3 | 6.1 | 0.00 | 0.00 | 0.00 | 56 | 1012.9 |
| 20260504013906 | 91 | 48 | 0.9 | 6.1 | 0.00 | 0.00 | 0.00 | 57 | 1012.5 |
| 20260504013406 | 90 | 46 | 2.6 | 7.0 | 0.00 | 0.00 | 0.00 | 58 | 1012.5 |
| 20260504012906 | 91 | 47 | 2.6 | 4.3 | 0.00 | 0.00 | 0.00 | 57 | 1012.5 |
| 20260504012406 | 91 | 303 | 2.6 | 4.3 | 0.00 | 0.00 | 0.00 | 57 | 1012.9 |
| 20260504011906 | 91 | 288 | 2.6 | 5.2 | 0.00 | 0.00 | 0.00 | 56 | 1012.5 |
| 20260504011406 | 91 | 52 | 5.2 | 6.1 | 0.00 | 0.00 | 0.00 | 57 | 1012.5 |
| 20260504010906 | 92 | 49 | 7.0 | 8.7 | 0.00 | 0.00 | 0.00 | 55 | 1012.9 |
| 20260504010406 | 90 | 104 | 0.9 | 4.3 | 0.00 | 0.00 | 0.00 | 58 | 1012.5 |
| 20260504005906 | 91 | 55 | 2.6 | 5.2 | 0.00 | 0.00 | 0.00 | 56 | 1012.9 |
| 20260504005406 | 90 | 253 | 1.7 | 1.7 | 0.00 | 0.00 | 0.00 | 58 | 1012.5 |
| 20260504004906 | 90 | 219 | 1.7 | 2.6 | 0.00 | 0.00 | 0.00 | 58 | 1012.9 |
| 20260504004406 | 90 | 300 | 1.7 | 2.6 | 0.00 | 0.00 | 0.00 | 58 | 1012.9 |
| 20260504003906 | 89 | 51 | 2.6 | 5.2 | 0.00 | 0.00 | 0.00 | 59 | 1012.9 |
| 20260504003406 | 88 | 54 | 1.7 | 2.6 | 0.00 | 0.00 | 0.00 | 60 | 1012.9 |
| 20260504002906 | 88 | 70 | 0.9 | 1.7 | 0.00 | 0.00 | 0.00 | 60 | 1012.5 |
| 20260504002406 | 86 | 91 | 1.7 | 2.6 | 0.00 | 0.00 | 0.00 | 61 | 1012.5 |
| 20260504001908 | 86 | 272 | 0.9 | 1.7 | 0.00 | 0.00 | 0.00 | 63 | 1012.2 |
| 20260504001406 | 87 | 286 | 2.6 | 2.6 | 0.00 | 0.00 | 0.00 | 62 | 1012.2 |
| 20260504000906 | 87 | 275 | 0.9 | 1.7 | 0.00 | 0.00 | 0.00 | 60 | 1012.5 |
| 20260504000408 | 86 | 155 | 0.0 | 1.7 | 0.00 | 0.00 | 0.00 | 60 | 1012.5 |
| 20260503235907 | 86 | 191 | 1.7 | 1.7 | 0.00 | 0.00 | 0.00 | 61 | 1012.2 |
| 20260503235406 | 85 | 259 | 1.7 | 1.7 | 0.00 | 0.00 | 0.00 | 62 | 1012.2 |
| 20260503234906 | 85 | 277 | 1.7 | 1.7 | 0.00 | 0.00 | 0.00 | 62 | 1012.5 |
| 20260503234406 | 85 | 300 | 0.9 | 1.7 | 0.00 | 0.00 | 0.00 | 62 | 1011.9 |
| 20260503233906 | 85 | 295 | 0.9 | 0.9 | 0.00 | 0.00 | 0.00 | 62 | 1011.9 |
| 20260503233407 | 85 | 306 | 1.7 | 1.7 | 0.00 | 0.00 | 0.00 | 61 | 1011.9 |
| 20260503232907 | 85 | 54 | 0.0 | 0.9 | 0.00 | 0.00 | 0.00 | 62 | 1011.9 |
| 20260503232406 | 85 | 66 | 0.9 | 0.9 | 0.00 | 0.00 | 0.00 | 62 | 1011.9 |
| 20260503231906 | 85 | 67 | 1.7 | 1.7 | 0.00 | 0.00 | 0.00 | 60 | 1011.9 |
| 20260503231406 | 85 | 75 | 0.0 | 0.9 | 0.00 | 0.00 | 0.00 | 61 | 1011.5 |
| 20260503230906 | 86 | 68 | 0.9 | 1.7 | 0.00 | 0.00 | 0.00 | 60 | 1011.5 |
| 20260503230406 | 86 | 71 | 0.0 | 1.7 | 0.00 | 0.00 | 0.00 | 60 | 1011.5 |
| 20260503225906 | 86 | 75 | 0.9 | 0.9 | 0.00 | 0.00 | 0.00 | 59 | 1011.5 |
| 20260503225406 | 87 | 313 | 0.0 | 0.9 | 0.00 | 0.00 | 0.00 | 59 | 1011.5 |
| 20260503224906 | 85 | 66 | 0.9 | 0.9 | 0.00 | 0.00 | 0.00 | 61 | 1011.5 |
| 20260503224406 | 84 | 10 | 0.9 | 0.9 | 0.00 | 0.00 | 0.00 | 63 | 1011.2 |
| 20260503223906 | 84 | 50 | 0.0 | 0.9 | 0.00 | 0.00 | 0.00 | 62 | 1011.2 |
| 20260503223406 | 84 | 50 | 0.9 | 0.9 | 0.00 | 0.00 | 0.00 | 63 | 1010.8 |
| 20260503222906 | 83 | 50 | 0.0 | 1.7 | 0.00 | 0.00 | 0.00 | 64 | 1010.8 |
| 20260503222408 | 83 | 32 | 0.9 | 1.7 | 0.00 | 0.00 | 0.00 | 63 | 1010.8 |
| 20260503221906 | 82 | 13 | 0.0 | 0.9 | 0.00 | 0.00 | 0.00 | 65 | 1011.2 |
| 20260503221408 | 81 | 1 | 0.0 | 0.9 | 0.00 | 0.00 | 0.00 | 66 | 1010.8 |
| 20260503220906 | 81 | 0 | 0.0 | 0.0 | 0.00 | 0.00 | 0.00 | 67 | 1011.2 |
| 20260503220406 | 81 | 9 | 0.0 | 0.9 | 0.00 | 0.00 | 0.00 | 67 | 1010.8 |
| 20260503215907 | 81 | 52 | 0.9 | 0.9 | 0.00 | 0.00 | 0.00 | 67 | 1010.8 |
| 20260503215407 | 81 | 52 | 0.0 | 0.9 | 0.00 | 0.00 | 0.00 | 67 | 1010.8 |
| 20260503214906 | 81 | 52 | 0.0 | 0.9 | 0.00 | 0.00 | 0.00 | 67 | 1010.8 |
| 20260503214406 | 81 | 52 | 0.9 | 1.7 | 0.00 | 0.00 | 0.00 | 67 | 1010.8 |
| 20260503213906 | 81 | 59 | 0.9 | 1.7 | 0.00 | 0.00 | 0.00 | 67 | 1010.8 |
| 20260503213406 | 81 | 48 | 0.9 | 0.9 | 0.00 | 0.00 | 0.00 | 67 | 1010.8 |
| 20260503212906 | 81 | 34 | 0.0 | 0.0 | 0.00 | 0.00 | 0.00 | 67 | 1011.2 |
| 20260503212408 | 81 | 34 | 0.0 | 0.9 | 0.00 | 0.00 | 0.00 | 67 | 1011.2 |
| 20260503211906 | 81 | 34 | 0.9 | 0.9 | 0.00 | 0.00 | 0.00 | 67 | 1010.8 |
| 20260503211406 | 81 | 308 | 0.0 | 0.9 | 0.00 | 0.00 | 0.00 | 67 | 1011.2 |
| 20260503210908 | 81 | 305 | 0.0 | 0.9 | 0.00 | 0.00 | 0.00 | 67 | 1011.2 |
| 20260503210406 | 81 | 306 | 0.0 | 0.0 | 0.00 | 0.00 | 0.00 | 67 | 1010.8 |
| 20260503205906 | 81 | 306 | 0.0 | 0.9 | 0.00 | 0.00 | 0.00 | 67 | 1011.2 |
| 20260503205319 | 81 | 310 | 0.9 | 0.9 | 0.00 | 0.00 | 0.00 | 67 | 1010.8 |
| 20260503204807 | 81 | 303 | 0.0 | 0.9 | 0.00 | 0.00 | 0.00 | 67 | 1010.5 |
| 20260503204306 | 81 | 303 | 0.0 | 0.9 | 0.00 | 0.00 | 0.00 | 66 | 1010.5 |
| 20260503203806 | 81 | 324 | 0.0 | 0.9 | 0.00 | 0.00 | 0.00 | 65 | 1010.5 |
| 20260503203306 | 81 | 324 | 0.9 | 0.9 | 0.00 | 0.00 | 0.00 | 65 | 1010.8 |
| 20260503202806 | 81 | 355 | 0.9 | 1.7 | 0.00 | 0.00 | 0.00 | 66 | 1010.5 |
| 20260503202308 | 81 | 23 | 0.0 | 0.9 | 0.00 | 0.00 | 0.00 | 66 | 1010.5 |
| 20260503201806 | 81 | 53 | 0.0 | 0.9 | 0.00 | 0.00 | 0.00 | 66 | 1010.5 |
| 20260503201306 | 81 | 43 | 0.0 | 0.0 | 0.00 | 0.00 | 0.00 | 67 | 1010.5 |
| 20260503200806 | 81 | 61 | 0.9 | 0.9 | 0.00 | 0.00 | 0.00 | 67 | 1010.2 |
| 20260503200307 | 81 | 64 | 0.0 | 0.0 | 0.00 | 0.00 | 0.00 | 67 | 1010.5 |
| 20260503195806 | 82 | 64 | 0.0 | 0.0 | 0.00 | 0.00 | 0.00 | 67 | 1010.5 |
| 20260503195307 | 82 | 64 | 0.0 | 0.0 | 0.00 | 0.00 | 0.00 | 67 | 1010.5 |
| 20260503194806 | 82 | 64 | 0.9 | 1.7 | 0.00 | 0.00 | 0.00 | 67 | 1010.2 |
| 20260503194307 | 82 | 59 | 0.9 | 0.9 | 0.00 | 0.00 | 0.00 | 67 | 1010.2 |
| 20260503193807 | 82 | 59 | 0.0 | 1.7 | 0.00 | 0.00 | 0.00 | 67 | 1010.5 |
| 20260503193306 | 82 | 44 | 0.9 | 0.9 | 0.00 | 0.00 | 0.00 | 67 | 1010.2 |
| 20260503192806 | 82 | 58 | 0.0 | 0.0 | 0.00 | 0.00 | 0.00 | 67 | 1009.8 |
| 20260503192306 | 82 | 59 | 0.9 | 1.7 | 0.00 | 0.00 | 0.00 | 67 | 1010.2 |
| 20260503191806 | 82 | 59 | 0.9 | 2.6 | 0.00 | 0.00 | 0.00 | 67 | 1010.2 |
| 20260503191306 | 82 | 69 | 2.6 | 4.3 | 0.00 | 0.00 | 0.00 | 66 | 1010.2 |
| 20260503190807 | 82 | 88 | 0.9 | 1.7 | 0.00 | 0.00 | 0.00 | 67 | 1010.2 |
| 20260503190306 | 82 | 98 | 0.9 | 1.7 | 0.00 | 0.00 | 0.00 | 68 | 1010.2 |
| 20260503185806 | 82 | 95 | 2.6 | 2.6 | 0.00 | 0.00 | 0.00 | 68 | 1010.2 |
| 20260503185306 | 82 | 113 | 0.9 | 2.6 | 0.00 | 0.00 | 0.00 | 69 | 1010.2 |
| 20260503184806 | 82 | 129 | 4.3 | 5.2 | 0.00 | 0.00 | 0.00 | 69 | 1010.2 |
| 20260503184307 | 82 | 78 | 2.6 | 5.2 | 0.00 | 0.00 | 0.00 | 68 | 1010.2 |
| 20260503183806 | 82 | 81 | 3.5 | 5.2 | 0.00 | 0.00 | 0.00 | 68 | 1010.2 |
| 20260503183306 | 82 | 114 | 0.9 | 2.6 | 0.00 | 0.00 | 0.00 | 69 | 1010.2 |
| 20260503182806 | 82 | 70 | 1.7 | 4.3 | 0.00 | 0.00 | 0.00 | 70 | 1010.2 |
| 20260503182306 | 82 | 101 | 0.9 | 4.3 | 0.00 | 0.00 | 0.00 | 70 | 1010.2 |
| 20260503181806 | 82 | 116 | 0.9 | 2.6 | 0.00 | 0.00 | 0.00 | 71 | 1010.2 |
| 20260503181306 | 82 | 109 | 0.9 | 4.3 | 0.00 | 0.00 | 0.00 | 71 | 1010.2 |
| 20260503180806 | 82 | 115 | 3.5 | 4.3 | 0.00 | 0.00 | 0.00 | 69 | 1010.2 |
| 20260503180306 | 83 | 120 | 1.7 | 4.3 | 0.00 | 0.00 | 0.00 | 68 | 1010.2 |
| 20260503175808 | 83 | 97 | 1.7 | 2.6 | 0.00 | 0.00 | 0.00 | 67 | 1010.2 |
| 20260503175306 | 83 | 88 | 3.5 | 4.3 | 0.00 | 0.00 | 0.00 | 66 | 1010.2 |
| 20260503174807 | 83 | 88 | 2.6 | 4.3 | 0.00 | 0.00 | 0.00 | 66 | 1009.8 |
| 20260503174306 | 83 | 116 | 2.6 | 4.3 | 0.00 | 0.00 | 0.00 | 66 | 1010.2 |
| 20260503173806 | 83 | 127 | 2.6 | 2.6 | 0.00 | 0.00 | 0.00 | 67 | 1010.2 |
| 20260503173306 | 82 | 96 | 4.3 | 5.2 | 0.00 | 0.00 | 0.00 | 67 | 1010.2 |
| 20260503172806 | 83 | 127 | 3.5 | 6.1 | 0.00 | 0.00 | 0.00 | 68 | 1010.2 |
| 20260503172306 | 83 | 121 | 0.9 | 1.7 | 0.00 | 0.00 | 0.00 | 68 | 1010.2 |
| 20260503171807 | 83 | 130 | 2.6 | 2.6 | 0.00 | 0.00 | 0.00 | 67 | 1010.2 |
| 20260503171306 | 83 | 85 | 2.6 | 4.3 | 0.00 | 0.00 | 0.00 | 64 | 1010.2 |
| 20260503170806 | 83 | 125 | 1.7 | 2.6 | 0.00 | 0.00 | 0.00 | 64 | 1010.2 |
| 20260503170306 | 83 | 145 | 2.6 | 4.3 | 0.00 | 0.00 | 0.00 | 65 | 1010.2 |